| time (UTC) | temp F | wind direction | speed MPH | gust MPH | rain 1hr in | rain 24hr in | rain mn in | humidity % | barometer mb |
| 20260507090204 | 42 | 175 | 2.0 | 8.0 | 0.00 | 0.35 | 0.00 | 92 | 1005.2 |
| 20260507084704 | 42 | 181 | 4.0 | 8.0 | 0.00 | 0.35 | 0.00 | 92 | 1005.4 |
| 20260507082704 | 42 | 183 | 4.0 | 8.0 | 0.00 | 0.35 | 0.00 | 92 | 1005.6 |
| 20260507080704 | 42 | 178 | 3.0 | 5.0 | 0.00 | 0.35 | 0.00 | 92 | 1005.5 |
| 20260507080204 | 42 | 177 | 3.0 | 9.0 | 0.00 | 0.35 | 0.00 | 92 | 1005.5 |
| 20260507074705 | 42 | 176 | 4.0 | 10.0 | 0.00 | 0.35 | 0.00 | 92 | 1005.6 |
| 20260507074205 | 42 | 184 | 3.0 | 12.0 | 0.00 | 0.35 | 0.00 | 92 | 1005.6 |
| 20260507072706 | 42 | 173 | 3.0 | 7.0 | 0.00 | 0.35 | 0.00 | 92 | 1005.5 |
| 20260507072206 | 42 | 172 | 3.0 | 7.0 | 0.00 | 0.35 | 0.00 | 92 | 1005.5 |
| 20260507070705 | 42 | 173 | 3.0 | 8.0 | 0.00 | 0.35 | 0.00 | 92 | 1005.5 |
| 20260507070206 | 42 | 172 | 3.0 | 9.0 | 0.00 | 0.35 | 0.00 | 92 | 1005.5 |
| 20260507064705 | 42 | 176 | 2.0 | 5.0 | 0.00 | 0.35 | 0.00 | 92 | 1005.6 |
| 20260507064205 | 42 | 177 | 3.0 | 7.0 | 0.00 | 0.35 | 0.00 | 92 | 1005.6 |
| 20260507062705 | 42 | 176 | 3.0 | 6.0 | 0.00 | 0.35 | 0.00 | 92 | 1005.7 |
| 20260507062205 | 42 | 177 | 3.0 | 7.0 | 0.00 | 0.35 | 0.00 | 92 | 1005.7 |
| 20260507060705 | 42 | 173 | 2.0 | 5.0 | 0.00 | 0.35 | 0.00 | 92 | 1005.8 |
| 20260507060204 | 42 | 173 | 3.0 | 6.0 | 0.00 | 0.35 | 0.00 | 92 | 1005.8 |
| 20260507054705 | 42 | 174 | 3.0 | 6.0 | 0.00 | 0.35 | 0.00 | 91 | 1006.0 |
| 20260507054205 | 42 | 174 | 3.0 | 8.0 | 0.00 | 0.35 | 0.00 | 91 | 1006.0 |
| 20260507052705 | 42 | 176 | 3.0 | 7.0 | 0.00 | 0.35 | 0.00 | 91 | 1006.4 |
| 20260507052204 | 42 | 174 | 4.0 | 10.0 | 0.00 | 0.35 | 0.00 | 91 | 1006.5 |
| 20260507050705 | 42 | 176 | 3.0 | 5.0 | 0.00 | 0.35 | 0.00 | 91 | 1006.6 |
| 20260507050205 | 42 | 177 | 3.0 | 6.0 | 0.00 | 0.35 | 0.00 | 91 | 1006.7 |
| 20260507044705 | 42 | 178 | 2.0 | 5.0 | 0.00 | 0.35 | 0.00 | 91 | 1006.8 |
| 20260507044205 | 42 | 178 | 3.0 | 6.0 | 0.00 | 0.35 | 0.00 | 91 | 1006.9 |
| 20260507042705 | 42 | 181 | 2.0 | 5.0 | 0.00 | 0.35 | 0.00 | 91 | 1007.0 |
| 20260507042206 | 42 | 182 | 3.0 | 7.0 | 0.00 | 0.35 | 0.00 | 91 | 1007.0 |
| 20260507040705 | 42 | 198 | 2.0 | 5.0 | 0.00 | 0.35 | 0.00 | 91 | 1007.2 |
| 20260507040205 | 42 | 198 | 3.0 | 6.0 | 0.00 | 0.35 | 0.00 | 91 | 1007.2 |
| 20260507034705 | 43 | 200 | 3.0 | 6.0 | 0.00 | 0.35 | 0.35 | 91 | 1007.2 |
| 20260507034205 | 43 | 207 | 2.0 | 6.0 | 0.00 | 0.35 | 0.35 | 91 | 1007.2 |
| 20260507032705 | 43 | 230 | 2.0 | 3.0 | 0.00 | 0.35 | 0.35 | 91 | 1007.3 |
| 20260507032205 | 43 | 231 | 2.0 | 3.0 | 0.00 | 0.35 | 0.35 | 91 | 1007.3 |
| 20260507030705 | 43 | 231 | 1.0 | 2.0 | 0.00 | 0.35 | 0.35 | 90 | 1007.3 |
| 20260507030205 | 43 | 231 | 1.0 | 3.0 | 0.00 | 0.35 | 0.35 | 91 | 1007.3 |
| 20260507024705 | 43 | 231 | 1.0 | 2.0 | 0.00 | 0.35 | 0.35 | 90 | 1007.4 |
| 20260507024204 | 43 | 231 | 2.0 | 3.0 | 0.00 | 0.35 | 0.35 | 90 | 1007.5 |
| 20260507022205 | 44 | 235 | 1.0 | 2.0 | 0.00 | 0.36 | 0.35 | 90 | 1007.7 |
| 20260507020705 | 44 | 235 | 0.0 | 0.0 | 0.00 | 0.36 | 0.35 | 90 | 1007.7 |
| 20260507020205 | 44 | 235 | 1.0 | 2.0 | 0.00 | 0.36 | 0.35 | 90 | 1007.7 |
| 20260507014705 | 44 | 235 | 1.0 | 2.0 | 0.00 | 0.36 | 0.35 | 90 | 1007.7 |
| 20260507014204 | 44 | 235 | 1.0 | 3.0 | 0.00 | 0.36 | 0.35 | 90 | 1007.8 |
| 20260507012705 | 44 | 235 | 2.0 | 3.0 | 0.00 | 0.36 | 0.35 | 90 | 1007.8 |
| 20260507012205 | 44 | 235 | 1.0 | 2.0 | 0.00 | 0.36 | 0.35 | 90 | 1007.7 |
| 20260507010705 | 44 | 235 | 1.0 | 2.0 | 0.00 | 0.36 | 0.35 | 89 | 1007.6 |
| 20260507010205 | 44 | 235 | 1.0 | 3.0 | 0.00 | 0.36 | 0.35 | 89 | 1007.5 |
| 20260507004705 | 44 | 235 | 1.0 | 2.0 | 0.00 | 0.36 | 0.35 | 88 | 1007.4 |
| 20260507004205 | 44 | 235 | 1.0 | 1.0 | 0.00 | 0.36 | 0.35 | 88 | 1007.4 |
| 20260507002705 | 45 | 235 | 0.0 | 1.0 | 0.00 | 0.36 | 0.35 | 87 | 1007.4 |
| 20260507002205 | 45 | 235 | 1.0 | 1.0 | 0.00 | 0.36 | 0.35 | 87 | 1007.4 |
| 20260507000704 | 45 | 235 | 1.0 | 2.0 | 0.00 | 0.36 | 0.35 | 86 | 1007.1 |
| 20260507000205 | 45 | 235 | 1.0 | 3.0 | 0.00 | 0.36 | 0.35 | 85 | 1007.1 |
| 20260506234705 | 46 | 235 | 2.0 | 3.0 | 0.00 | 0.36 | 0.35 | 85 | 1007.1 |
| 20260506234205 | 46 | 235 | 2.0 | 3.0 | 0.00 | 0.36 | 0.35 | 85 | 1007.0 |
| 20260506232705 | 46 | 235 | 3.0 | 3.0 | 0.00 | 0.36 | 0.35 | 85 | 1007.0 |
| 20260506232205 | 46 | 235 | 2.0 | 3.0 | 0.00 | 0.36 | 0.35 | 85 | 1006.9 |
| 20260506230705 | 46 | 235 | 2.0 | 3.0 | 0.00 | 0.36 | 0.35 | 85 | 1006.9 |
| 20260506230205 | 46 | 235 | 2.0 | 3.0 | 0.00 | 0.36 | 0.35 | 84 | 1007.0 |
| 20260506224705 | 46 | 235 | 2.0 | 3.0 | 0.00 | 0.36 | 0.35 | 85 | 1006.8 |
| 20260506224205 | 46 | 235 | 2.0 | 5.0 | 0.00 | 0.36 | 0.35 | 85 | 1007.0 |
| 20260506222705 | 46 | 235 | 3.0 | 5.0 | 0.00 | 0.36 | 0.35 | 84 | 1006.9 |
| 20260506222205 | 46 | 234 | 2.0 | 5.0 | 0.00 | 0.36 | 0.35 | 84 | 1006.9 |
| 20260506220705 | 46 | 234 | 2.0 | 3.0 | 0.00 | 0.36 | 0.35 | 84 | 1007.0 |
| 20260506220205 | 46 | 234 | 2.0 | 3.0 | 0.00 | 0.36 | 0.35 | 84 | 1007.0 |
| 20260506214705 | 46 | 234 | 2.0 | 3.0 | 0.00 | 0.36 | 0.35 | 84 | 1006.9 |
| 20260506214205 | 46 | 234 | 2.0 | 5.0 | 0.00 | 0.36 | 0.35 | 84 | 1007.0 |
| 20260506212704 | 47 | 234 | 3.0 | 5.0 | 0.00 | 0.36 | 0.35 | 84 | 1007.1 |
| 20260506212205 | 47 | 234 | 2.0 | 6.0 | 0.00 | 0.36 | 0.35 | 84 | 1007.1 |
| 20260506210704 | 47 | 232 | 2.0 | 3.0 | 0.00 | 0.36 | 0.35 | 82 | 1007.1 |
| 20260506210205 | 47 | 232 | 3.0 | 3.0 | 0.00 | 0.36 | 0.35 | 82 | 1007.1 |
| 20260506204704 | 47 | 232 | 2.0 | 3.0 | 0.00 | 0.36 | 0.35 | 83 | 1007.0 |
| 20260506204204 | 46 | 232 | 2.0 | 5.0 | 0.00 | 0.36 | 0.35 | 82 | 1007.0 |
| 20260506202704 | 47 | 230 | 3.0 | 5.0 | 0.00 | 0.36 | 0.35 | 82 | 1007.1 |
| 20260506202204 | 47 | 229 | 3.0 | 5.0 | 0.00 | 0.36 | 0.35 | 83 | 1007.1 |
| 20260506200705 | 47 | 226 | 4.0 | 6.0 | 0.00 | 0.36 | 0.35 | 83 | 1007.1 |
| 20260506200205 | 47 | 166 | 2.0 | 3.0 | 0.00 | 0.36 | 0.35 | 84 | 1007.1 |
| 20260506194704 | 47 | 164 | 2.0 | 3.0 | 0.00 | 0.36 | 0.35 | 84 | 1007.2 |
| 20260506194204 | 47 | 164 | 0.0 | 2.0 | 0.00 | 0.36 | 0.35 | 83 | 1007.2 |
| 20260506192704 | 47 | 164 | 1.0 | 3.0 | 0.00 | 0.36 | 0.35 | 84 | 1007.1 |
| 20260506192204 | 47 | 164 | 1.0 | 3.0 | 0.00 | 0.36 | 0.35 | 85 | 1007.1 |
| 20260506190705 | 47 | 164 | 0.0 | 3.0 | 0.01 | 0.36 | 0.35 | 86 | 1006.9 |
| 20260506190205 | 46 | 164 | 1.0 | 3.0 | 0.01 | 0.36 | 0.35 | 87 | 1007.1 |
| 20260506184704 | 46 | 177 | 2.0 | 3.0 | 0.01 | 0.36 | 0.35 | 87 | 1007.2 |
| 20260506184204 | 46 | 222 | 0.0 | 3.0 | 0.01 | 0.36 | 0.35 | 87 | 1007.4 |
| 20260506182705 | 45 | 226 | 0.0 | 1.0 | 0.01 | 0.36 | 0.35 | 88 | 1007.5 |
| 20260506182205 | 45 | 226 | 1.0 | 3.0 | 0.01 | 0.36 | 0.35 | 88 | 1007.5 |
| 20260506180705 | 45 | 227 | 1.0 | 3.0 | 0.01 | 0.35 | 0.35 | 89 | 1007.8 |
| 20260506180204 | 45 | 227 | 1.0 | 3.0 | 0.01 | 0.35 | 0.35 | 89 | 1007.8 |
| 20260506174705 | 45 | 225 | 1.0 | 2.0 | 0.02 | 0.35 | 0.35 | 89 | 1008.0 |
| 20260506174204 | 45 | 225 | 2.0 | 3.0 | 0.02 | 0.35 | 0.35 | 89 | 1008.0 |
| 20260506172704 | 45 | 225 | 1.0 | 2.0 | 0.03 | 0.39 | 0.35 | 89 | 1007.9 |
| 20260506172204 | 44 | 225 | 2.0 | 3.0 | 0.04 | 0.40 | 0.35 | 89 | 1008.1 |
| 20260506170704 | 44 | 224 | 2.0 | 3.0 | 0.04 | 0.46 | 0.34 | 90 | 1008.3 |
| 20260506170204 | 44 | 224 | 1.0 | 3.0 | 0.05 | 0.49 | 0.34 | 90 | 1008.4 |
| 20260506164704 | 44 | 224 | 1.0 | 3.0 | 0.05 | 0.49 | 0.33 | 90 | 1008.5 |
| 20260506164205 | 44 | 224 | 2.0 | 3.0 | 0.04 | 0.48 | 0.32 | 90 | 1008.6 |
| 20260506162704 | 44 | 224 | 1.0 | 2.0 | 0.05 | 0.47 | 0.31 | 90 | 1008.8 |
| 20260506162206 | 44 | 224 | 1.0 | 3.0 | 0.05 | 0.46 | 0.31 | 90 | 1008.8 |
| 20260506160705 | 44 | 224 | 0.0 | 1.0 | 0.05 | 0.46 | 0.30 | 90 | 1008.8 |
| 20260506160205 | 44 | 224 | 0.0 | 2.0 | 0.05 | 0.45 | 0.29 | 89 | 1008.8 |
| 20260506154704 | 44 | 224 | 1.0 | 2.0 | 0.06 | 0.44 | 0.28 | 88 | 1008.9 |
| 20260506154204 | 44 | 224 | 1.0 | 3.0 | 0.06 | 0.44 | 0.28 | 89 | 1009.0 |
| 20260506152704 | 44 | 224 | 1.0 | 2.0 | 0.06 | 0.43 | 0.27 | 90 | 1009.1 |
| 20260506152205 | 44 | 224 | 0.0 | 3.0 | 0.06 | 0.42 | 0.26 | 89 | 1009.2 |
| 20260506150705 | 44 | 224 | 2.0 | 3.0 | 0.06 | 0.41 | 0.25 | 89 | 1009.2 |
| 20260506150204 | 44 | 211 | 2.0 | 3.0 | 0.06 | 0.40 | 0.24 | 90 | 1009.1 |
| 20260506144704 | 44 | 200 | 1.0 | 3.0 | 0.05 | 0.39 | 0.23 | 91 | 1009.1 |
| 20260506144204 | 44 | 200 | 2.0 | 3.0 | 0.05 | 0.38 | 0.22 | 91 | 1009.2 |
| 20260506142704 | 44 | 198 | 0.0 | 2.0 | 0.05 | 0.36 | 0.20 | 91 | 1009.3 |
| 20260506140705 | 44 | 198 | 0.0 | 2.0 | 0.06 | 0.35 | 0.19 | 91 | 1009.3 |
| 20260506134704 | 44 | 198 | 1.0 | 2.0 | 0.06 | 0.34 | 0.18 | 91 | 1009.2 |
| 20260506134204 | 44 | 197 | 0.0 | 3.0 | 0.06 | 0.33 | 0.17 | 91 | 1009.4 |
| 20260506132704 | 44 | 197 | 1.0 | 3.0 | 0.06 | 0.35 | 0.16 | 91 | 1009.2 |
| 20260506132204 | 44 | 198 | 1.0 | 3.0 | 0.05 | 0.36 | 0.15 | 91 | 1009.3 |
| 20260506130704 | 44 | 198 | 0.0 | 0.0 | 0.06 | 0.36 | 0.13 | 91 | 1009.2 |
| 20260506130204 | 44 | 198 | 0.0 | 5.0 | 0.06 | 0.36 | 0.13 | 91 | 1009.2 |
| 20260506124704 | 44 | 202 | 1.0 | 3.0 | 0.06 | 0.35 | 0.12 | 91 | 1009.1 |
| 20260506124204 | 44 | 202 | 2.0 | 3.0 | 0.06 | 0.34 | 0.11 | 90 | 1009.0 |
| 20260506122705 | 44 | 202 | 1.0 | 3.0 | 0.07 | 0.33 | 0.10 | 90 | 1008.8 |
| 20260506122204 | 45 | 202 | 1.0 | 3.0 | 0.08 | 0.33 | 0.10 | 90 | 1008.9 |
| 20260506120704 | 45 | 202 | 1.0 | 3.0 | 0.06 | 0.31 | 0.08 | 89 | 1009.2 |
| 20260506120204 | 45 | 202 | 2.0 | 5.0 | 0.05 | 0.30 | 0.07 | 89 | 1009.3 |
| 20260506114705 | 45 | 217 | 1.0 | 3.0 | 0.05 | 0.28 | 0.06 | 89 | 1009.4 |
| 20260506114204 | 45 | 264 | 2.0 | 3.0 | 0.04 | 0.28 | 0.05 | 89 | 1009.6 |
| 20260506112704 | 45 | 259 | 2.0 | 3.0 | 0.03 | 0.26 | 0.03 | 88 | 1009.3 |
| 20260506110204 | 46 | 211 | 2.0 | 6.0 | 0.02 | 0.25 | 0.02 | 89 | 1009.0 |
| 20260506104704 | 46 | 193 | 2.0 | 5.0 | 0.01 | 0.24 | 0.01 | 88 | 1009.0 |
| 20260506104204 | 46 | 184 | 2.0 | 5.0 | 0.01 | 0.24 | 0.01 | 89 | 1008.9 |
| 20260506102704 | 46 | 167 | 2.0 | 9.0 | 0.00 | 0.23 | 0.00 | 88 | 1008.7 |
| 20260506102204 | 47 | 180 | 4.0 | 12.0 | 0.00 | 0.23 | 0.00 | 88 | 1008.6 |
| 20260506100704 | 47 | 167 | 3.0 | 7.0 | 0.00 | 0.23 | 0.00 | 87 | 1008.8 |
| 20260506100203 | 47 | 167 | 2.0 | 7.0 | 0.00 | 0.23 | 0.00 | 87 | 1008.7 |
| 20260506094704 | 47 | 176 | 3.0 | 6.0 | 0.00 | 0.23 | 0.00 | 87 | 1008.4 |
| 20260506094204 | 47 | 166 | 3.0 | 9.0 | 0.00 | 0.23 | 0.00 | 86 | 1008.3 |
| 20260506092204 | 47 | 173 | 4.0 | 9.0 | 0.00 | 0.23 | 0.00 | 86 | 1007.9 |
| 20260506090704 | 47 | 168 | 4.0 | 6.0 | 0.00 | 0.23 | 0.00 | 86 | 1008.2 |